Regional Weather Roundup
Issued by NWS

Home | Current Version | Previous Version | Text Only | Print | Product List | Glossary On
Versions: 1 2 3 4 5 6 7 8 9 10 11 12 13 14 15 16 17 18 19 20 21 22 23 24 25 26 27 28 29 30 31 32 33 34 35 36 37 38 39 40 41 42 43 44 45 46 47 48 49 50
000
ASUS43 KLSX 280807
RWRMO

WEATHER SUMMARY FOR MISSOURI
NATIONAL WEATHER SERVICE SPRINGFIELD MO
200 AM CST SUN DEC 28 2014

NOTE: "FAIR" INDICATES FEW OR NO CLOUDS BELOW 12,000 FEET WITH NO
       SIGNIFICANT WEATHER AND/OR OBSTRUCTIONS TO VISIBILITY.
       CURRENT SKY AND/OR WEATHER CONDITIONS ARE NOT AVAILABLE FOR
       CHILLICOTHE AND FARMINGTON.

MOZ001>031-035>038-043-044-053-054-280900-
...NORTHERN AND WESTERN MISSOURI...

CITY           SKY/WX    TMP DP  RH WIND       PRES   REMARKS
KANSAS CTY INT CLEAR     21  18  88 W6        30.24F WCI  13
KANSAS C DTWN  CLEAR     25  18  74 NW3       30.26F
LEE`S SUMMIT   CLEAR     22  18  85 W3        30.24F
ST JOSEPH      CLEAR     19  16  88 S7        30.26S WCI  10
CHILLICOTHE      N/A     22  18  85 CALM      30.26S
KIRKSVILLE     CLEAR     23  21  92 W5        30.22S WCI  17

$$
MOZ066>068-077>081-088>096-101>105-280900-
...SOUTHWEST MISSOURI...

CITY           SKY/WX    TMP DP  RH WIND       PRES   REMARKS
SPRINGFIELD    CLOUDY    27  23  85 NW7       30.23S WCI  19
JOPLIN         MOCLDY    23  20  88 CALM      30.27F

$$
MOZ032>034-039>042-045>050-055>058-069>072-280900-
...CENTRAL MISSOURI...

CITY           SKY/WX    TMP DP  RH WIND       PRES   REMARKS
COLUMBIA       CLOUDY    28  22  78 NW9       30.23S WCI  19
JEFFERSON CITY CLOUDY    30  23  75 NW12      30.25S WCI  20
ROLLA          CLOUDY    29  24  82 W7        30.20R WCI  22
SEDALIA        CLEAR     25  21  85 NW3       30.25S
WARRENSBURG    CLEAR     21  19  93 CALM      30.26R
OSAGE BEACH    CLOUDY    28  23  80 CALM      30.23S

$$
MOZ051-052-059>065-280900-
...EAST CENTRAL MISSOURI...

CITY           SKY/WX    TMP DP  RH WIND       PRES   REMARKS
ST LOUIS INTL  CLOUDY    34  26  72 NW8       30.21R WCI  27
SPIRIT OF STL  CLOUDY    32  26  78 W5        30.22R WCI  27
ST CHARLES     CLOUDY    32  25  75 NW12      30.22R WCI  23

$$
MOZ072>076-082>087-097>100-106>115-280900-
...SOUTH CENTRAL AND SOUTHEAST MISSOURI...

CITY           SKY/WX    TMP DP  RH WIND       PRES   REMARKS
CAPE GIRARDEAU CLOUDY    37  33  85 N10       30.20R WCI  30
POPLAR BLUFF   CLOUDY    38  33  82 NW10      30.19R
WEST PLAINS    CLOUDY    31  27  85 NW8       30.20R WCI  23

$$



USA.gov is the U.S. government's official web portal to all federal, state and local government web resources and services.